| time (UTC) | temp F | wind direction | speed MPH | gust MPH | rain 1hr in | rain 24hr in | rain mn in | humidity % | barometer mb |
| 20260506061925 | 61 | 0 | 0.0 | 0.0 | 0.00 | 0.00 | 0.00 | 86 | 1007.3 |
| 20260506050922 | 54 | 0 | 0.0 | 0.0 | 0.00 | 0.00 | 0.00 | 96 | 1007.6 |
| 20260506044921 | 52 | 13 | 2.0 | 3.0 | 0.00 | 0.00 | 0.00 | 97 | 1007.6 |
| 20260506043921 | 52 | 195 | 1.0 | 5.0 | 0.00 | 0.00 | 0.00 | 97 | 1007.6 |
| 20260506042921 | 53 | 0 | 0.0 | 0.0 | 0.00 | 0.00 | 0.00 | 95 | 1007.4 |
| 20260506041920 | 54 | 0 | 0.0 | 0.0 | 0.00 | 0.00 | 0.00 | 92 | 1007.4 |
| 20260506040920 | 55 | 35 | 0.0 | 2.0 | 0.00 | 0.00 | 0.00 | 91 | 1007.6 |
| 20260506035920 | 56 | 53 | 1.0 | 2.0 | 0.00 | 0.00 | 0.00 | 88 | 1007.8 |
| 20260506034920 | 57 | 0 | 0.0 | 0.0 | 0.00 | 0.00 | 0.00 | 86 | 1008.0 |
| 20260506032919 | 57 | 132 | 3.0 | 5.0 | 0.00 | 0.00 | 0.00 | 84 | 1008.0 |
| 20260506031918 | 56 | 122 | 2.0 | 5.0 | 0.00 | 0.00 | 0.00 | 88 | 1008.3 |
| 20260506030918 | 56 | 110 | 2.0 | 6.0 | 0.00 | 0.00 | 0.00 | 92 | 1008.5 |
| 20260506024917 | 57 | 162 | 2.0 | 5.0 | 0.00 | 0.00 | 0.00 | 90 | 1008.0 |
| 20260506023917 | 57 | 149 | 2.0 | 5.0 | 0.00 | 0.00 | 0.00 | 88 | 1008.0 |
| 20260506022917 | 57 | 138 | 2.0 | 6.0 | 0.00 | 0.00 | 0.00 | 89 | 1008.0 |
| 20260506020916 | 57 | 148 | 3.0 | 5.0 | 0.00 | 0.00 | 0.00 | 91 | 1008.3 |
| 20260506015915 | 57 | 143 | 2.0 | 4.0 | 0.00 | 0.00 | 0.00 | 92 | 1008.5 |
| 20260506014915 | 57 | 135 | 1.0 | 3.0 | 0.00 | 0.00 | 0.00 | 92 | 1008.4 |
| 20260506013915 | 56 | 205 | 2.0 | 5.0 | 0.00 | 0.00 | 0.00 | 93 | 1008.3 |
| 20260506011914 | 56 | 204 | 1.0 | 3.0 | 0.00 | 0.00 | 0.00 | 93 | 1008.4 |
| 20260506010914 | 56 | 159 | 2.0 | 5.0 | 0.00 | 0.00 | 0.00 | 93 | 1008.4 |
| 20260506005913 | 56 | 136 | 1.0 | 5.0 | 0.00 | 0.00 | 0.00 | 94 | 1008.5 |
| 20260506003913 | 57 | 200 | 1.0 | 4.0 | 0.00 | 0.00 | 0.00 | 94 | 1008.7 |
| 20260506002912 | 57 | 101 | 1.0 | 3.0 | 0.00 | 0.00 | 0.00 | 93 | 1008.5 |
| 20260506001912 | 57 | 0 | 0.0 | 0.0 | 0.00 | 0.00 | 0.00 | 93 | 1008.4 |
| 20260506000911 | 57 | 176 | 1.0 | 5.0 | 0.00 | 0.00 | 0.00 | 92 | 1008.8 |
| 20260505235911 | 57 | 208 | 1.0 | 2.0 | 0.00 | 0.00 | 0.00 | 91 | 1008.9 |
| 20260505234911 | 57 | 194 | 3.0 | 6.0 | 0.00 | 0.00 | 0.00 | 91 | 1009.0 |
| 20260505233910 | 58 | 190 | 1.0 | 3.0 | 0.00 | 0.00 | 0.00 | 91 | 1009.1 |
| 20260505232910 | 58 | 0 | 0.0 | 0.0 | 0.00 | 0.00 | 0.00 | 91 | 1009.1 |
| 20260505231910 | 58 | 195 | 0.0 | 2.0 | 0.00 | 0.00 | 0.00 | 90 | 1009.1 |
| 20260505230909 | 59 | 221 | 0.0 | 3.0 | 0.00 | 0.00 | 0.00 | 89 | 1009.1 |
| 20260505225909 | 59 | 214 | 2.0 | 6.0 | 0.00 | 0.00 | 0.00 | 89 | 1009.1 |
| 20260505224908 | 59 | 243 | 1.0 | 4.0 | 0.00 | 0.00 | 0.00 | 88 | 1009.1 |
| 20260505223908 | 59 | 201 | 4.0 | 9.0 | 0.00 | 0.00 | 0.00 | 88 | 1009.1 |
| 20260505222908 | 59 | 204 | 4.0 | 8.0 | 0.00 | 0.00 | 0.00 | 88 | 1009.1 |
| 20260505221907 | 59 | 207 | 2.0 | 4.0 | 0.00 | 0.00 | 0.00 | 89 | 1009.0 |
| 20260505220907 | 59 | 183 | 0.0 | 1.0 | 0.00 | 0.00 | 0.00 | 93 | 1008.7 |
| 20260505215906 | 59 | 0 | 0.0 | 0.0 | 0.00 | 0.00 | 0.00 | 93 | 1008.7 |
| 20260505214906 | 59 | 0 | 0.0 | 0.0 | 0.00 | 0.00 | 0.00 | 93 | 1008.5 |
| 20260505213906 | 59 | 0 | 0.0 | 0.0 | 0.00 | 0.00 | 0.00 | 90 | 1008.1 |
| 20260505212906 | 59 | 75 | 0.0 | 1.0 | 0.00 | 0.00 | 0.00 | 90 | 1007.9 |
| 20260505211905 | 59 | 146 | 0.0 | 2.0 | 0.00 | 0.00 | 0.00 | 91 | 1007.6 |
| 20260505210905 | 59 | 127 | 0.0 | 4.0 | 0.00 | 0.00 | 0.00 | 92 | 1007.8 |
| 20260505205905 | 59 | 214 | 0.0 | 1.0 | 0.00 | 0.00 | 0.00 | 94 | 1007.7 |
| 20260505204904 | 59 | 148 | 1.0 | 3.0 | 0.00 | 0.00 | 0.00 | 94 | 1007.5 |
| 20260505203904 | 59 | 118 | 0.0 | 2.0 | 0.00 | 0.00 | 0.00 | 95 | 1007.3 |
| 20260505201903 | 59 | 198 | 1.0 | 4.0 | 0.00 | 0.00 | 0.00 | 95 | 1007.1 |
| 20260505195902 | 59 | 174 | 1.0 | 3.0 | 0.00 | 0.00 | 0.00 | 95 | 1006.5 |
| 20260505194902 | 58 | 155 | 1.0 | 6.0 | 0.00 | 0.00 | 0.00 | 96 | 1006.2 |
| 20260505193902 | 58 | 125 | 2.0 | 5.0 | 0.00 | 0.00 | 0.00 | 97 | 1006.1 |
| 20260505192901 | 59 | 155 | 1.0 | 5.0 | 0.00 | 0.00 | 0.00 | 96 | 1005.9 |
| 20260505191901 | 59 | 204 | 1.0 | 3.0 | 0.00 | 0.00 | 0.00 | 95 | 1005.8 |
| 20260505190900 | 60 | 0 | 0.0 | 0.0 | 0.00 | 0.00 | 0.00 | 89 | 1005.7 |
| 20260505185900 | 61 | 0 | 0.0 | 0.0 | 0.00 | 0.00 | 0.00 | 88 | 1005.5 |
| 20260505184900 | 62 | 0 | 0.0 | 0.0 | 0.00 | 0.00 | 0.00 | 86 | 1005.4 |
| 20260505183859 | 63 | 0 | 0.0 | 0.0 | 0.00 | 0.00 | 0.00 | 83 | 1005.3 |
| 20260505182859 | 63 | 53 | 0.0 | 3.0 | 0.00 | 0.00 | 0.00 | 82 | 1005.2 |
| 20260505181859 | 63 | 21 | 4.0 | 5.0 | 0.00 | 0.00 | 0.00 | 83 | 1005.3 |
| 20260505180858 | 62 | 31 | 4.0 | 7.0 | 0.00 | 0.00 | 0.00 | 83 | 1005.3 |
| 20260505175858 | 62 | 42 | 4.0 | 6.0 | 0.00 | 0.00 | 0.00 | 86 | 1005.3 |
| 20260505174857 | 62 | 25 | 3.0 | 5.0 | 0.00 | 0.00 | 0.00 | 84 | 1005.4 |
| 20260505173857 | 63 | 338 | 2.0 | 5.0 | 0.00 | 0.00 | 0.00 | 82 | 1005.5 |
| 20260505172857 | 63 | 314 | 1.0 | 3.0 | 0.00 | 0.00 | 0.00 | 80 | 1005.7 |
| 20260505171856 | 63 | 51 | 4.0 | 8.0 | 0.00 | 0.00 | 0.00 | 84 | 1005.8 |
| 20260505165856 | 64 | 173 | 4.0 | 9.0 | 0.00 | 0.00 | 0.00 | 76 | 1005.7 |
| 20260505164855 | 64 | 193 | 7.0 | 13.0 | 0.00 | 0.00 | 0.00 | 79 | 1005.6 |
| 20260505163855 | 64 | 207 | 7.0 | 15.0 | 0.00 | 0.00 | 0.00 | 79 | 1005.3 |
| 20260505162855 | 67 | 200 | 15.0 | 28.0 | 0.00 | 0.00 | 0.00 | 67 | 1005.1 |
| 20260505161854 | 74 | 191 | 5.0 | 13.0 | 0.00 | 0.00 | 0.00 | 45 | 1004.2 |
| 20260505160854 | 75 | 205 | 1.0 | 5.0 | 0.00 | 0.00 | 0.00 | 44 | 1004.0 |
| 20260505152852 | 76 | 7 | 2.0 | 6.0 | 0.00 | 0.00 | 0.00 | 48 | 1003.9 |
| 20260505151852 | 77 | 288 | 2.0 | 6.0 | 0.00 | 0.00 | 0.00 | 45 | 1003.9 |
| 20260505150852 | 77 | 288 | 2.0 | 6.0 | 0.00 | 0.00 | 0.00 | 48 | 1003.9 |
| 20260505124847 | 77 | 215 | 5.0 | 10.0 | 0.00 | 0.00 | 0.00 | 41 | 1004.8 |
| 20260505123846 | 77 | 160 | 5.0 | 12.0 | 0.00 | 0.00 | 0.00 | 40 | 1004.9 |
| 20260505122846 | 78 | 225 | 4.0 | 9.0 | 0.00 | 0.00 | 0.00 | 41 | 1005.2 |
| 20260505121846 | 78 | 288 | 3.0 | 10.0 | 0.00 | 0.00 | 0.00 | 40 | 1005.4 |
| 20260505120845 | 78 | 212 | 3.0 | 7.0 | 0.00 | 0.00 | 0.00 | 40 | 1005.5 |
| 20260505115845 | 77 | 219 | 3.0 | 7.0 | 0.00 | 0.00 | 0.00 | 40 | 1005.6 |
| 20260505114844 | 78 | 252 | 2.0 | 9.0 | 0.00 | 0.00 | 0.00 | 41 | 1005.9 |
| 20260505113844 | 80 | 215 | 1.0 | 6.0 | 0.00 | 0.00 | 0.00 | 41 | 1006.0 |
| 20260505112843 | 78 | 288 | 2.0 | 6.0 | 0.00 | 0.00 | 0.00 | 43 | 1006.1 |
| 20260505111843 | 77 | 343 | 2.0 | 8.0 | 0.00 | 0.00 | 0.00 | 46 | 1006.2 |
| 20260505110843 | 76 | 330 | 2.0 | 5.0 | 0.00 | 0.00 | 0.00 | 46 | 1006.3 |
| 20260505110239 | 78 | 221 | 2.0 | 6.0 | 0.00 | 0.00 | 0.00 | 40 | 1006.4 |
| 20260505100841 | 74 | 218 | 2.0 | 6.0 | 0.00 | 0.00 | 0.00 | 48 | 1007.3 |
| 20260505095840 | 74 | 246 | 2.0 | 6.0 | 0.00 | 0.00 | 0.00 | 49 | 1007.2 |
| 20260505094840 | 75 | 215 | 2.0 | 8.0 | 0.00 | 0.00 | 0.00 | 48 | 1007.3 |
| 20260505092839 | 76 | 270 | 2.0 | 9.0 | 0.00 | 0.00 | 0.00 | 48 | 1007.5 |
| 20260505090838 | 75 | 343 | 1.0 | 4.0 | 0.00 | 0.00 | 0.00 | 50 | 1007.6 |
| 20260505085838 | 75 | 256 | 0.0 | 2.0 | 0.00 | 0.00 | 0.00 | 53 | 1007.7 |
| 20260505084838 | 74 | 203 | 3.0 | 7.0 | 0.00 | 0.00 | 0.00 | 52 | 1007.7 |
| 20260505083838 | 76 | 24 | 2.0 | 5.0 | 0.00 | 0.00 | 0.00 | 53 | 1007.7 |
| 20260505082837 | 75 | 350 | 2.0 | 5.0 | 0.00 | 0.00 | 0.00 | 56 | 1007.8 |
| 20260505081838 | 74 | 201 | 0.0 | 2.0 | 0.00 | 0.00 | 0.00 | 58 | 1007.8 |
| 20260505080836 | 75 | 353 | 1.0 | 5.0 | 0.00 | 0.00 | 0.00 | 56 | 1007.9 |
| 20260505075836 | 74 | 166 | 1.0 | 4.0 | 0.00 | 0.00 | 0.00 | 57 | 1008.0 |
| 20260505074836 | 74 | 214 | 1.0 | 4.0 | 0.00 | 0.00 | 0.00 | 58 | 1008.0 |
| 20260505073835 | 75 | 326 | 0.0 | 1.0 | 0.00 | 0.00 | 0.00 | 55 | 1008.1 |
| 20260505072835 | 77 | 167 | 1.0 | 3.0 | 0.00 | 0.00 | 0.00 | 54 | 1008.2 |
| 20260505071834 | 78 | 0 | 0.0 | 0.0 | 0.00 | 0.00 | 0.00 | 53 | 1008.2 |
| 20260505070834 | 76 | 0 | 0.0 | 0.0 | 0.00 | 0.00 | 0.00 | 54 | 1008.2 |
| 20260505065834 | 74 | 138 | 0.0 | 1.0 | 0.00 | 0.00 | 0.00 | 55 | 1008.2 |